Location: Lichtensteig
(47.3376°N, 9.0841°E)
Time: 00:05:17
(UTC+00:00)

Meteor 1-18 Rocket - Pass Details

Date: 03 March 2021
Orbit: 836 x 909 km, 81.2° (Epoch: 20 April)

Event Time Altitude Azimuth Distance (km) Brightness Sun altitude
Rises 17:47:23 0° 351° (N) 3,551 7.5 -6.8°
Reaches altitude 10° 17:49:55 10° 355° (N) 2,607 6.8 -7.2°
Maximum altitude 17:55:49 61° 75° (ENE) 1,028 4.4 -8.2°
Drops below altitude 10° 18:01:38 10° 156° (SSE) 2,574 6.5 -9.2°
Sets 18:04:06 0° 159° (SSE) 3,503 7.2 -9.6°
